Regional Weather Roundup
Issued by NWS

Home | Current Version | Previous Version | Text Only | Print | Product List | Glossary On
Versions: 1 2 3 4 5 6 7 8 9 10 11 12 13 14 15 16 17 18 19 20 21 22 23 24 25 26 27 28 29 30 31 32 33 34 35 36 37 38 39 40 41 42 43 44 45 46 47 48 49 50
000
ASUS44 KLIX 281810
RWRLA
LOUISIANA WEATHER ROUNDUP
NATIONAL WEATHER SERVICE NEW ORLEANS LA
1200 PM CST WED JAN 28 2015

NOTE: "FAIR" INDICATES FEW OR NO CLOUDS BELOW 12,000 FEET WITH NO
      SIGNIFICANT WEATHER AND/OR OBSTRUCTIONS TO VISIBILITY.
      SKY/WX - SKY CONDITION AND SIGNIFICANT WEATHER.
      TMP - AIR TEMPERATURE.    DP   - DEWPOINT TEMPERATURE.
      RH  - RELATIVE HUMIDITY.  PRES - PRESSURE.
      HX  - HEAT INDEX.         WCI  - WIND CHILL INDEX.

*  THESE STATIONS ARE NOT NWS OR FAA STATIONS AND ARE NOT UNDER
   NWS QUALITY CONTROL.

LAZ040-048-061>063-065-066-069-281900-
SOUTHEAST LOUISIANA

CITY           SKY/WX    TMP DP  RH WIND       PRES   REMARKS
N.O. AUDUBON   NOT AVBL
N.O. INTL ARPT FAIR      63  39  41 E5        30.29S
6HR MIN TEMP:  50; 6HR MAX TEMP:  64;

N.O. LAKEFRONT FAIR      61  39  44 E10       30.30R
6HR MIN TEMP:  51; 6HR MAX TEMP:  61;

N.O. DOWNTOWN* NOT AVBL
SLIDELL        FAIR      64  36  35 CALM      30.27F
6HR MIN TEMP:  37; 6HR MAX TEMP:  64;

BATON ROUGE    FAIR      65  37  35 E6        30.27F
6HR MIN TEMP:  41; 6HR MAX TEMP:  65;

BOOTHVILLE     FAIR      59  47  64 NE9       30.28F
6HR MIN TEMP:  51; 6HR MAX TEMP:  60;

BELLE CHASSE   FAIR      63  40  42 E3        30.28R
6HR MIN TEMP:  39; 6HR MAX TEMP:  63;

BOGALUSA*        N/A     64  33  32 S3        30.30F
6HR MIN TEMP:  35; 6HR MAX TEMP:  64;

GALLIANO*      FAIR      65  45  49 MISG      30.29R
6HR MIN TEMP:  51; 6HR MAX TEMP:  65;

NEW ROADS*     FAIR      64  38  38 E7        30.27F
6HR MIN TEMP:  44; 6HR MAX TEMP:  64;

GONZALES*      FAIR      64  38  39 E6        30.27F
6HR MIN TEMP:  43; 6HR MAX TEMP:  64;

HAMMOND*       FAIR      64  32  29 CALM      30.30F
HOUMA*         SUNNY     64  45  48 NE6       30.28S
PORT FOURCHON* CLEAR     63  50  63 E14       30.30S

$$

LAZ041-044-053-054-281900-
SOUTHWEST LOUISIANA

CITY           SKY/WX    TMP DP  RH WIND       PRES   REMARKS
LAKE CHARLES   FAIR      68  43  40 S9        30.25F
6HR MIN TEMP:  42; 6HR MAX TEMP:  68;

LAFAYETTE      FAIR      66  41  40 S5        30.26F
6HR MIN TEMP:  49; 6HR MAX TEMP:  67;

PATTERSON      FAIR      64  41  42 NE5       30.28F
6HR MIN TEMP:  45; 6HR MAX TEMP:  66;

SALT POINT       N/A     65  43  44 SE9       30.25F
6HR MIN TEMP:  48; 6HR MAX TEMP:  65;

NEW IBERIA     FAIR      67  41  38 E10       30.27F
6HR MIN TEMP:  47; 6HR MAX TEMP:  68;

CHENAULT AIRPK SUNNY     68  41  37 SE12G17   30.26F

$$

LAZ027-028-281900-
CENTRAL LOUISIANA

CITY           SKY/WX    TMP DP  RH WIND       PRES   REMARKS
FORT POLK      FAIR      67  39  36 S10       30.23F
6HR MIN TEMP:  40; 6HR MAX TEMP:  67;

ALEXANDRIA INT FAIR      64  42  44 SE10      30.24F
6HR MIN TEMP:  39; 6HR MAX TEMP:  64;

ALEXANDRIA     FAIR      67  40  37 SE5       30.25F
6HR MIN TEMP:  36; 6HR MAX TEMP:  68;


$$

LAZ001-002-281900-
NORTHWEST LOUISIANA

CITY           SKY/WX    TMP DP  RH WIND       PRES   REMARKS
SHREVEPORT     FAIR      72  44  36 S9        30.17F
6HR MIN TEMP:  42; 6HR MAX TEMP:  72;

BARKSDALE AFB  FAIR      68  45  44 S13       30.19F
6HR MIN TEMP:  40; 6HR MAX TEMP:  68;

DTN SHREVEPORT FAIR      69  44  40 S12       30.18F
6HR MIN TEMP:  41; 6HR MAX TEMP:  69;


$$

LAZ014-016-281900-
NORTHEAST LOUISIANA

CITY           SKY/WX    TMP DP  RH WIND       PRES   REMARKS
MONROE         FAIR      62  39  42 VRB6      30.25F
6HR MIN TEMP:  36; 6HR MAX TEMP:  62;

TALLULAH       FAIR      61  38  42 VRB3      30.26F
6HR MIN TEMP:  40; 6HR MAX TEMP:  61;


$$



USA.gov is the U.S. government's official web portal to all federal, state and local government web resources and services.